[Date Prev][Date Next][Thread Prev][Thread Next] - [Date Index][Thread Index][Author Index]

2 Line ISS Keps 8-15



ISS
1 25544U 98067A   05226.96253472  .00010374  00000-0  83186-4 0  1439
2 25544 051.6465 319.9918 0000953 262.4126 079.6155 15.71693653384924
----
Via the sarex mailing list at AMSAT.ORG courtesy of AMSAT-NA.
To unsubscribe, send "unsubscribe sarex" to Majordomo@amsat.org



AMSAT Top AMSAT Home